Location: Casteau
(50.5142°N, 4.0161°E)
Time: 13:15:47
(UTC+00:00)

S-56A Canister/Altair - Visible Passes

Search period start: 02 August 2021 00:00
Search period end: 12 August 2021 00:00
Orbit: 631 x 2501 km, 38.9° (Epoch: 01 August)

Date Brightness Start Highest point End Pass type
(mag) Time Alt. Az. Time Alt. Az. Time Alt. Az.
02 Aug 11.0 20:52:37 10° W 21:01:40 20° SW 21:09:34 10° S visible
03 Aug 11.0 20:18:31 10° W 20:28:42 23° SW 20:37:40 10° S visible
04 Aug 11.1 19:44:36 10° W 19:55:40 26° SW 20:05:33 10° S visible
06 Aug 11.5 20:49:14 10° WSW 20:52:18 11° SW 20:55:17 10° SW visible
07 Aug 11.5 20:13:26 10° WSW 20:19:25 14° SW 20:25:08 10° SSW visible
08 Aug 11.5 19:38:47 10° W 19:46:27 16° SW 19:53:50 10° SSW visible
